Location: Peterborough
(44.3091°N, 78.3197°W)
Time: 05:55:03
(UTC-04:00)

SR - All Passes

Search period start: 22 March 2023 00:00
Search period end: 01 April 2023 00:00
Orbit: 583 x 866 km, 66.7° (Epoch: 21 March)

Date Brightness Start Highest point End Pass type
(mag) Time Alt. Az. Time Alt. Az. Time Alt. Az.
22 Mar - 03:10:34 10° SSE 03:14:09 22° ESE 03:17:34 10° ENE visible
22 Mar - 04:51:23 10° SW 04:55:50 45° NW 05:00:04 10° NNE visible
22 Mar - 11:48:16 10° N 11:51:47 24° NE 11:55:24 10° ESE daylight
22 Mar - 13:29:49 10° NW 13:33:51 41° WSW 13:38:04 10° S daylight
23 Mar - 04:00:25 10° SSW 04:05:07 86° ESE 04:09:32 10° NNE visible
23 Mar - 05:45:00 10° WNW 05:47:37 15° NW 05:50:11 10° N visible
23 Mar - 10:58:29 10° N 11:00:43 14° NE 11:02:59 10° ENE daylight
23 Mar - 12:38:58 10° NNW 12:43:17 89° ENE 12:47:46 10° SSE daylight
24 Mar - 03:10:09 10° S 03:14:32 40° ESE 03:18:41 10° NE visible
24 Mar - 04:52:42 10° WSW 04:56:34 26° NW 05:00:17 10° N visible
24 Mar - 11:48:27 10° NNW 11:52:32 41° NE 11:56:46 10° SE daylight
24 Mar - 13:30:54 10° WNW 13:34:14 22° WSW 13:37:41 10° SSW daylight
25 Mar - 02:20:50 10° SSE 02:24:05 19° ESE 02:27:13 10° ENE visible
25 Mar - 04:01:11 10° SW 04:05:42 51° NW 04:09:59 10° NNE visible
25 Mar - 10:58:15 10° N 11:01:37 22° NE 11:05:04 10° E daylight
25 Mar - 12:39:37 10° NW 12:43:46 47° WSW 12:48:06 10° S daylight
26 Mar - 03:10:20 10° SSW 03:15:00 76° ESE 03:19:23 10° NE visible
26 Mar - 04:54:32 10° W 04:57:25 16° NW 05:00:13 10° N visible
26 Mar - 10:08:35 10° N 10:10:30 13° NE 10:12:25 10° ENE daylight
26 Mar - 11:48:50 10° NNW 11:53:09 78° ENE 11:57:38 10° SE daylight
26 Mar - 13:33:06 10° W 13:34:29 11° WSW 13:35:54 10° SW daylight
27 Mar - 02:20:12 10° S 02:24:26 35° ESE 02:28:26 10° NE visible
27 Mar - 04:02:23 10° WSW 04:06:23 29° NW 04:10:13 10° NNE visible
27 Mar - 10:58:22 10° NNW 11:02:22 37° NE 11:06:31 10° ESE daylight
27 Mar - 12:40:35 10° WNW 12:44:08 25° WSW 12:47:50 10° SSW daylight
28 Mar - 01:31:07 10° SSE 01:34:00 16° ESE 01:36:47 10° ENE visible
28 Mar - 03:10:59 10° SW 03:15:32 58° NW 03:19:51 10° NNE visible
28 Mar - 04:57:33 10° NW 04:58:23 10° NW 04:59:12 10° NNW visible
28 Mar - 10:08:12 10° N 10:11:24 20° NE 10:14:40 10° E daylight
28 Mar - 11:49:25 10° NW 11:53:38 55° WSW 11:58:03 10° SSE daylight
29 Mar - 02:20:15 10° SSW 02:24:51 66° ESE 02:29:12 10° NE visible
29 Mar - 04:04:05 10° W 04:07:10 18° NW 04:10:12 10° N visible
29 Mar - 09:18:45 10° NNE 09:20:14 11° NE 09:21:43 10° ENE daylight
29 Mar - 10:58:40 10° NNW 11:02:58 68° ENE 11:07:28 10° SE daylight
29 Mar - 12:42:18 10° WNW 12:44:24 13° WSW 12:46:33 10° SW daylight
30 Mar - 01:30:15 10° S 01:34:18 30° ESE 01:38:09 10° NE visible
30 Mar - 03:12:04 10° WSW 03:16:11 32° NW 03:20:06 10° NNE visible
30 Mar - 10:08:14 10° NNW 10:12:09 33° NE 10:16:12 10° ESE daylight
30 Mar - 11:50:15 10° NW 11:54:00 29° WSW 11:57:54 10° S daylight
31 Mar - 00:41:28 10° SE 00:43:52 14° ESE 00:46:13 10° ENE night (unlit)
31 Mar - 02:20:46 10° SW 02:25:21 66° WNW 02:29:41 10° NNE visible
31 Mar - 04:06:37 10° NW 04:08:05 11° NW 04:09:33 10° NNW visible
31 Mar - 09:18:08 10° N 09:21:08 18° NE 09:24:13 10° E daylight
31 Mar - 10:59:10 10° NW 11:03:27 64° WSW 11:07:57 10° SSE daylight
